Regional Weather Roundup
Issued by NWS

Home | Current Version | Previous Version | Text Only | Print | Product List | Glossary Off
Versions: 1 2 3 4 5 6 7 8 9 10 11 12 13 14 15 16 17 18 19 20 21 22 23 24 25 26 27 28 29 30 31 32 33 34 35 36 37 38 39 40 41 42 43 44 45 46 47 48 49 50

000
ASUS43 KIND 210909
RWRIN

WEATHER ROUNDUP FOR INDIANA
NATIONAL WEATHER SERVICE INDIANAPOLIS IN
500 AM EDT SUN SEP 21 2014

NOTE: "FAIR" INDICATES FEW OR NO CLOUDS BELOW 12,000 FEET WITH NO
SIGNIFICANT WEATHER AND/OR OBSTRUCTIONS TO VISIBILITY.

* - STATION DOES NOT REPORT WEATHER SUCH AS PRECIPITATION OR FOG.

+ - STATION NOT QUALITY CONTROLLED BY THE NATIONAL WEATHER SERVICE.
    USE DATA WITH CAUTION...ESPECIALLY DEWPOINT AND RELATIVE
    HUMIDITY OBSERVATIONS.

INZ001>003-010>013-019-020-211000-
NORTHWEST INDIANA

CITY           SKY/WX    TMP DP  RH WIND       PRES   REMARKS
GARY /AIRPORT/ PTCLDY    65  59  81 W18G25    29.77R
KNOX *+        CLOUDY    67  62  85 W12G21    29.74R
LA PORTE +     MOCLDY    63  60  91 W12G21    29.75R
MICHIGAN CITY+ CLOUDY    64  63  94 NW12G18   29.75R
MONTICELLO +   PTCLDY    68  67  96 W12G17    29.76R
RENSSELAER +   PTCLDY    66  64  94 W12G23    29.78R
VALPARAISO     PTCLDY    64  58  80 W17G24    29.76R

$$

LMZ046-743>745-211000-
SOUTHERN LAKE MICHIGAN

STATION/POSITION TIME  TEMP WIND        PRES
                       AIR  DIR/SP/G
                 (UTC) (F)  (DEG/KT/KT) (MB)
MICHIGAN CITY    0900   66  250/ 22/ 26   N/A

$$

INZ004-005-014>016-021>024-211000-
NORTH CENTRAL INDIANA

CITY           SKY/WX    TMP DP  RH WIND       PRES   REMARKS
GOSHEN         MOCLDY   N/A N/A N/A W16G25    29.71S
LOGANSPORT +   CLEAR     66  64  94 SW10      29.77F
PERU/GRISSOM   MOCLDY    69  69 100 W15       29.75F
ROCHESTER +    MOCLDY    70  70 100 W10G17    29.75R
SOUTH BEND     PTCLDY    65  59  81 W15       29.73R
WARSAW +       CLOUDY    68  66  94 W9        29.72F

$$

INZ006>009-017-018-025>027-211000-
NORTHEAST INDIANA

CITY           SKY/WX    TMP DP  RH WIND       PRES   REMARKS
ANGOLA *+      CLOUDY    68  59  73 W13       29.67F
AUBURN +       LGT RAIN  64  59  82 W9G28     29.72S
FORT WAYNE     CLOUDY    69  67  93 W15       29.73F
HUNTINGTON +   CLOUDY    68  67  96 W13G25    29.73F

$$

INZ028-029-035-036-043>045-051>053-211000-
WEST CENTRAL INDIANA

CITY           SKY/WX    TMP DP  RH WIND       PRES   REMARKS
GREENCASTLE +  MOCLDY    68  66  94 CALM      29.84S
LAFAYETTE      PTCLDY    68  67  96 W8        29.78S
TERRE HAUTE    PTCLDY    69  67  93 SW8       29.85R

$$

INZ030>032-037>040-046>048-054>057-064-065-211000-
CENTRAL INDIANA

CITY           SKY/WX    TMP DP  RH WIND       PRES   REMARKS
CP ATTERBURY + HVY RAIN  72  64  78 W9        29.86R
FRANKFORT +    MOCLDY   N/A N/A N/A SW10G16   29.81S
GREENWOOD *+   CLOUDY    72  70  94 W10G16    29.83
INDIANAPOLIS   CLOUDY    69  67  93 SW14      29.82S
-EAGLE CREEK   MOCLDY    70  66  87 SW7       29.81S
KOKOMO *+      MOCLDY    70  64  83 W14G22    29.77F
MARION +       CLOUDY    67  67  99 W12       29.78S
MT COMFORT *+  MOCLDY    70  70 100 SW13      29.82S
SHELBYVILLE    LGT RAIN  72  67  84 W9        29.82F
ZIONSVILLE +   PTCLDY    69  65  87 SW10      29.82R

$$

INZ033-034-041-042-049-050-058-059-211000-
EAST CENTRAL INDIANA

CITY           SKY/WX    TMP DP  RH WIND       PRES   REMARKS
MUNCIE         CLOUDY    70  66  87 SW12      29.78F

$$

INZ060-061-067>069-081>083-085>088-211000-
SOUTHWEST INDIANA

CITY           SKY/WX    TMP DP  RH WIND       PRES   REMARKS
EVANSVILLE     MOCLDY    71  66  84 SW7       29.90S
WASHINGTON +   CLOUDY    72  69  91 W13G18    29.86S

$$

INZ062-063-066-070>080-084-089>092-211000-
SOUTH CENTRAL AND SOUTHEAST INDIANA

CITY           SKY/WX    TMP DP  RH WIND       PRES   REMARKS
BLOOMINGTON    LGT RAIN  70  67  90 W8        29.86F

$$




USA.gov is the U.S. government's official web portal to all federal, state and local government web resources and services.